Temperature
6 6 6 6 6 5 5 5 5 5 5 5 5 5 5 5 5 5 5 5 5 5 5 5 5 5 5 6 6 6 6 6 6 6 6 6 6 6 7 7 7 7 7
6 6 5 5 5 5 5 5 5 5 5 5 5 5 5 5 5 5 5 5 5 5 5 5 5 5 5 5 5 5 5 5 6 5 6 6 6 6 6 6 6 6 6
6 5 5 5 5 5 5 5 5 5 5 5 5 5 5 4 5 5 5 5 5 5 5 5 5 5 5 5 5 5 5 5 5 5 5 5 5 5 5 5 6 6 6
6 5 5 5 5 5 5 5 5 5 5 4 4 4 4 4 4 4 4 4 4 4 4 4 4 4 4 4 4 5 5 5 5 5 5 5 5 5 5 5 5 5 5
5 5 5 5 5 5 4 4 4 4 4 4 4 4 4 4 4 4 4 4 4 4 4 4 4 4 4 4 4 4 4 4 4 4 4 4 4 4 4 4 4 4 4
5 5 5 5 4 4 4 4 4 4 4 4 4 4 4 3 3 3 3 3 3 3 3 3 4 4 4 4 4 4 4 4 4 4 4 4 4 4 4 3 3 3 3
5 5 5 4 4 4 4 4 4 4 4 4 4 3 3 3 3 3 3 3 3 3 3 3 3 3 3 3 3 3 3 3 3 3 4 4 4 4 3 3 3 3 3
5 5 4 4 4 4 4 4 4 4 3 3 3 3 3 3 3 3 3 3 3 3 3 3 3 3 3 3 3 3 3 3 3 3 3 3 3 3 3 3 3 3 3
4 4 4 4 4 4 3 3 3 3 3 3 3 2 2 2 2 2 2 2 2 2 2 2 3 3 3 2 2 3 3 3 3 3 3 3 3 3 3 3 2 2 2
4 4 4 4 3 3 3 3 3 3 2 2 2 2 2 2 2 2 2 2 2 2 2 2 2 2 2 2 2 2 2 2 2 3 3 3 2 2 2 2 2 2 2
3 3 3 3 3 3 3 2 2 2 2 2 2 2 2 2 2 2 2 1 1 1 1 1 1 1 1 1 2 2 2 2 2 2 2 2 2 2 2 2 2 2 2
3 3 3 3 3 2 2 2 2 2 1 1 1 1 1 1 1 1 1 1 1 1 1 1 1 1 1 1 1 1 1 1 1 1 1 2 2 1 1 1 1 1 1
3 2 2 2 2 2 2 2 1 1 1 0 0 0 0 1 1 1 1 1 1 1 1 0 0 1 1 1 1 1 1 1 1 1 1 1 1 1 1 1 1 1 1
2 2 2 1 1 1 1 1 1 1 0 -0 -0 -0 -0 0 0 0 0 0 0 0 0 0 0 0 0 0 0 1 1 1 0 0 0 0 0 0 0 0 0 0 0
2 1 1 1 1 1 1 0 0 0 -0 -0 -0 -1 -1 -0 -0 -0 -0 -0 -0 -0 -0 0 0 0 0 0 0 0 0 0 -0 -0 -0 -0 -0 0 -0 -0 -0 -0 -0
1 1 0 0 0 0 -0 -0 -0 -0 -1 -1 -1 -1 -1 -1 -1 -1 -1 -1 -0 -0 -0 -0 -0 -0 -0 -0 -0 -0 -0 -0 -0 -0 -1 -1 -1 -1 -1 -1 -1 -1 -1
0 -0 -0 -0 -0 -1 -1 -1 -1 -1 -1 -1 -1 -1 -1 -1 -1 -1 -1 -1 -1 -0 -0 -1 -1 -1 -1 -1 -1 -1 -1 -1 -1 -1 -1 -1 -1 -1 -1 -1 -1 -1 -1
-0 -1 -1 -1 -1 -1 -1 -2 -2 -2 -2 -1 -1 -1 -1 -1 -1 -1 -1 -1 -1 -1 -1 -1 -1 -1 -1 -1 -1 -1 -1 -1 -1 -1 -1 -1 -1 -1 -1 -2 -1 -1 -1
-1 -1 -1 -1 -2 -2 -2 -2 -2 -2 -2 -2 -2 -1 -1 -2 -2 -2 -2 -1 -1 -2 -2 -2 -2 -1 -1 -1 -1 -1 -2 -2 -2 -2 -2 -2 -2 -2 -2 -2 -2 -2 -1
-1 -2 -2 -2 -2 -2 -2 -3 -3 -3 -3 -3 -3 -2 -2 -2 -2 -2 -2 -2 -2 -2 -2 -2 -2 -2 -2 -2 -2 -2 -2 -2 -2 -2 -2 -2 -2 -2 -2 -2 -2 -2 -1
-2 -2 -2 -3 -3 -3 -3 -3 -4 -4 -4 -4 -3 -3 -3 -3 -3 -3 -3 -2 -2 -2 -2 -2 -2 -2 -2 -2 -2 -2 -2 -2 -2 -2 -2 -2 -2 -2 -2 -2 -2 -2 -2
-2 -2 -3 -3 -3 -4 -4 -4 -4 -4 -4 -4 -4 -4 -4 -3 -3 -3 -3 -3 -3 -3 -2 -2 -2 -2 -2 -2 -2 -2 -2 -2 -2 -2 -2 -2 -2 -2 -2 -2 -2 -2 -2
-3 -3 -3 -4 -4 -4 -4 -4 -5 -5 -5 -5 -5 -4 -4 -4 -4 -4 -4 -3 -3 -3 -3 -3 -2 -2 -2 -2 -2 -2 -2 -2 -2 -2 -2 -3 -3 -3 -2 -2 -2 -2 -2
-4 -4 -4 -4 -4 -4 -5 -5 -5 -5 -5 -5 -5 -5 -5 -4 -4 -4 -4 -4 -3 -3 -3 -3 -3 -3 -2 -2 -2 -2 -2 -3 -3 -3 -3 -3 -3 -3 -3 -2 -2 -2 -2
-4 -4 -5 -5 -5 -5 -5 -5 -5 -5 -5 -5 -5 -5 -5 -5 -4 -4 -4 -4 -4 -3 -3 -3 -3 -3 -3 -3 -3 -3 -3 -3 -3 -3 -3 -3 -3 -3 -3 -2 -2 -3 -3
-5 -5 -5 -5 -5 -6 -6 -6 -6 -6 -5 -5 -5 -5 -5 -5 -5 -5 -4 -4 -4 -4 -4 -3 -3 -3 -3 -3 -3 -3 -3 -3 -3 -3 -3 -3 -3 -3 -3 -3 -3 -3 -3
Wind_Speed
4 4 4 4 3 3 3 3 3 3 3 3 4 4 4 4 3 3 4 4 4 4 4 4 4 4 3 3 3 3 4 4 7 7 4 3 4 5 4 5 7 7 8
4 3 3 3 3 2 2 3 2 2 2 3 3 3 4 3 3 3 4 4 4 4 4 4 4 4 4 4 4 4 5 4 5 7 5 4 4 4 4 4 4 5 6
3 3 3 2 2 2 2 2 2 1 2 2 2 3 3 3 3 3 4 4 4 4 4 4 5 4 4 4 4 4 4 4 4 5 6 4 3 2 2 3 3 3 3
2 2 2 2 2 2 2 2 1 1 1 1 1 2 2 2 2 2 3 3 3 3 4 4 4 4 5 4 4 4 3 4 3 4 4 3 3 2 1 2 3 2 2
2 2 2 2 1 1 1 1 1 0 0 1 1 1 1 1 1 2 2 2 3 3 3 3 4 4 5 4 4 3 3 3 3 4 4 3 3 2 2 2 3 3 2
1 1 1 1 1 1 1 1 1 1 0 0 1 1 1 1 2 2 2 2 2 2 2 2 2 3 4 5 6 6 6 5 5 4 4 4 4 3 2 2 2 2 3
1 2 1 1 2 2 1 1 1 1 1 1 1 1 1 1 2 2 2 1 1 1 1 1 2 3 4 2 4 6 7 8 7 6 5 5 5 4 4 3 3 3 3
2 3 2 1 2 2 2 2 2 2 1 1 1 1 1 1 3 3 2 1 0 1 1 2 2 2 2 2 2 3 4 4 4 4 4 5 4 3 4 4 4 2 0
3 3 2 1 1 2 2 2 2 2 2 1 1 1 1 2 3 3 3 0 1 2 2 1 2 2 3 4 2 2 3 3 3 3 3 3 3 4 3 2 2 2 1
2 2 2 2 1 1 2 2 2 2 2 2 2 1 1 2 3 4 4 0 0 2 2 2 3 4 4 5 2 2 3 3 3 3 3 3 2 1 2 3 4 3 2
2 3 3 3 2 1 2 2 1 2 2 2 2 2 2 2 3 4 4 1 1 2 2 2 2 4 5 5 4 3 3 3 1 1 1 2 2 1 1 1 1 3 3
3 3 3 3 3 3 2 2 2 2 2 2 2 3 3 2 3 4 5 5 4 2 3 2 3 5 5 5 4 2 2 1 0 0 1 1 1 1 1 1 1 1 1
3 3 3 3 3 3 2 2 2 2 1 2 2 2 3 3 3 5 6 5 5 3 2 3 4 5 4 3 2 2 2 0 1 1 1 1 1 1 0 1 1 2 3
2 2 3 3 3 3 2 2 2 2 2 2 2 3 3 3 3 3 3 3 4 3 2 2 4 5 3 2 2 2 1 1 1 2 1 1 1 0 1 1 0 1 2
2 2 2 2 2 3 3 2 2 2 3 3 3 3 3 3 4 6 4 3 2 2 2 1 1 1 1 1 1 0 0 1 1 1 1 1 1 1 0 0 0 1 1
2 2 2 2 2 2 3 4 5 5 7 7 7 6 5 6 7 7 7 6 5 4 2 1 1 2 1 1 1 0 0 0 0 1 1 1 1 1 0 0 1 1 1
1 2 2 2 2 3 3 3 5 6 7 7 7 7 6 7 7 6 6 5 4 3 2 1 1 2 1 1 1 1 1 1 0 1 1 1 1 1 1 1 1 1 1
2 2 2 2 2 2 3 3 3 4 5 5 6 8 7 6 5 5 4 4 3 2 1 1 2 2 2 2 2 1 1 1 1 1 1 1 1 1 1 1 1 2 2
2 2 2 2 2 3 3 3 3 4 4 5 5 6 7 5 5 4 4 2 2 2 2 2 2 2 2 2 2 2 2 1 1 1 1 1 1 2 1 1 2 3 2
2 4 4 2 2 3 3 3 3 4 4 4 5 5 4 4 3 3 3 2 2 2 2 2 2 2 2 2 2 2 2 2 1 1 1 1 1 1 2 2 2 2 2
2 3 5 4 2 3 3 3 3 4 4 5 5 6 7 4 3 3 3 3 3 3 2 2 2 2 2 2 2 3 2 2 2 2 2 1 1 1 1 1 2 2 3
2 2 2 2 3 3 3 3 3 4 5 5 5 6 8 4 3 3 3 3 3 3 2 2 2 2 3 3 3 3 3 3 2 2 2 2 2 2 1 1 2 2 3
2 2 3 3 3 4 4 3 3 4 5 5 5 5 4 4 4 3 3 3 2 2 2 2 3 2 2 2 3 3 4 4 4 4 3 3 2 2 2 2 3 3 4
2 2 2 3 3 3 3 4 4 4 5 5 5 5 4 4 4 4 3 3 3 2 2 2 2 2 3 2 2 3 3 4 4 4 4 4 3 2 2 2 3 4 4
2 2 2 2 3 3 4 4 4 5 5 5 5 5 5 4 4 4 3 3 3 2 2 2 1 1 2 2 3 3 4 5 4 4 4 4 4 3 3 3 4 4 4
2 2 3 3 3 3 4 4 5 5 5 5 5 5 5 4 4 4 4 3 3 3 2 1 1 1 2 2 3 4 4 5 5 4 4 4 3 3 4 4 5 5 5
Wind_Direction
270 267 272 275 264 252 249 252 249 249 232 220 218 219 224 222 212 206 205 195 198 213 222 222 236 238 241 246 242 245 249 244 261 275 264 254 250 259 273 266 258 253 254
273 268 267 271 274 271 270 266 254 248 230 216 207 211 220 218 209 203 203 201 200 213 225 224 240 248 246 246 245 247 249 245 250 269 278 269 258 254 260 268 275 263 257
276 267 266 265 264 267 277 279 274 246 219 209 193 200 216 216 211 210 199 199 205 215 225 229 239 239 252 254 250 252 258 259 242 250 270 278 274 269 272 286 285 276 271
273 262 262 258 256 253 273 288 288 241 186 194 195 197 202 212 219 213 202 202 207 222 231 232 238 239 240 250 257 253 256 261 245 249 265 269 266 269 250 275 298 298 291
254 258 260 266 277 270 308 322 316 347 176 182 166 168 194 209 226 206 199 212 216 227 237 238 242 249 254 261 267 266 256 257 254 255 262 268 263 260 251 252 268 297 306
234 281 288 329 354 355 346 354 360 24 56 132 136 150 202 266 276 270 256 225 222 220 239 259 266 272 277 280 277 276 266 257 252 253 258 251 256 252 243 237 246 282 290
23 360 9 20 9 6 12 31 28 16 31 58 72 81 54 346 306 300 313 292 211 226 244 265 291 300 306 304 294 289 282 269 259 252 247 245 243 234 223 236 241 245 257
31 20 18 29 18 14 31 26 12 25 42 45 36 33 21 336 325 325 339 356 9 302 270 246 253 284 281 287 296 302 296 289 277 269 250 250 247 230 219 222 225 230 314
23 16 10 19 23 18 25 20 10 20 19 17 16 21 358 326 324 323 330 63 5 319 303 288 276 271 279 291 294 298 302 305 313 296 278 259 246 236 218 189 183 171 260
359 358 5 17 46 22 2 359 3 12 357 358 353 342 327 311 316 324 326 172 287 302 309 298 289 282 283 291 277 254 273 289 309 330 342 343 324 288 256 215 197 192 205
9 21 18 17 28 20 8 1 0 3 2 357 344 338 327 300 306 310 310 295 229 263 283 290 282 282 285 291 288 261 248 261 285 325 330 335 338 342 327 297 206 196 193
34 32 20 14 15 17 20 359 358 8 7 351 343 335 328 313 307 302 303 297 281 266 269 271 269 280 287 293 294 266 267 281 201 284 310 307 319 330 337 11 54 91 161
37 25 12 10 11 10 11 359 354 355 349 327 322 320 319 319 311 311 313 308 300 292 272 275 286 294 304 312 309 281 287 252 182 207 245 266 262 262 337 32 55 76 58
28 7 4 5 360 358 356 353 341 319 313 311 308 304 310 315 309 309 310 311 310 307 307 305 314 320 321 331 333 328 312 218 211 215 217 226 231 115 55 65 75 93 66
11 356 351 350 344 343 342 333 317 302 286 289 286 280 282 290 289 292 298 294 283 275 302 322 329 327 336 336 342 340 264 217 216 191 181 180 166 116 80 24 53 92 114
358 347 339 336 334 335 333 332 331 319 314 308 306 296 293 291 293 294 298 296 299 287 304 284 273 268 232 225 209 196 214 218 192 173 181 184 173 161 141 71 81 109 133
318 320 323 328 328 327 324 319 320 329 329 324 317 312 302 299 296 295 297 300 302 305 306 263 251 252 230 211 200 195 210 215 192 186 206 187 164 161 160 160 144 123 124
329 321 323 315 313 312 311 308 307 312 320 325 320 317 312 308 306 305 302 316 321 327 300 259 251 248 230 200 194 193 181 161 159 177 186 163 156 162 167 169 169 156 147
327 323 315 310 311 311 313 317 315 312 313 314 319 318 318 315 316 314 316 316 289 291 287 271 254 240 234 204 192 190 183 178 180 184 177 173 171 166 171 177 171 164 154
316 315 321 320 318 321 322 321 319 315 314 314 313 315 318 320 318 311 313 308 290 280 272 262 252 236 227 211 192 187 181 177 176 174 185 192 187 173 176 180 176 175 163
308 312 318 320 318 315 315 314 312 312 308 306 307 313 314 306 288 282 282 283 277 269 260 257 251 240 234 215 193 185 187 190 187 183 190 198 191 180 186 181 174 164 146
297 301 307 307 309 311 310 309 308 308 308 304 307 311 312 316 305 297 286 285 282 272 254 247 249 244 234 223 200 190 191 194 195 188 187 193 190 180 172 171 166 154 143
294 298 304 306 306 307 313 314 310 308 306 304 302 305 307 308 305 298 294 296 293 285 278 254 242 242 243 225 205 198 202 206 199 190 190 190 186 183 185 183 171 157 148
290 291 294 302 307 302 302 304 305 304 304 304 303 300 301 300 303 300 296 293 290 287 282 266 253 244 239 220 205 204 205 198 188 188 188 185 181 182 190 186 168 156 151
288 289 292 291 293 295 297 299 302 303 303 304 303 302 302 304 303 302 301 293 288 285 280 272 257 244 220 202 193 192 188 184 183 178 170 169 171 180 179 169 159 148 144
287 287 289 289 288 290 292 294 298 301 302 302 302 301 301 301 302 300 301 298 291 286 283 286 275 232 204 195 182 181 183 177 172 173 158 153 162 167 163 156 148 144 141
Height
1416 1414 1412 1410 1409 1408 1406 1405 1405 1404 1404 1405 1405 1406 1406 1407 1408 1409 1410 1412 1414 1415 1418 1420 1421 1423 1424 1424 1424 1424 1425 1424 1421 1419 1420 1420 1421 1420 1420 1420 1420 1419 1420
1413 1411 1410 1408 1407 1405 1404 1403 1403 1402 1402 1402 1403 1403 1403 1404 1405 1406 1407 1409 1410 1412 1414 1415 1416 1418 1419 1419 1419 1419 1419 1419 1417 1414 1415 1415 1415 1415 1415 1414 1414 1414 1414
1410 1409 1407 1406 1404 1403 1402 1401 1401 1400 1400 1400 1400 1401 1401 1402 1402 1403 1404 1406 1407 1409 1410 1411 1412 1413 1413 1414 1414 1414 1414 1414 1413 1411 1410 1411 1410 1410 1410 1409 1409 1409 1409
1408 1406 1405 1403 1403 1402 1401 1400 1399 1398 1398 1398 1398 1399 1399 1399 1399 1400 1401 1403 1404 1405 1406 1407 1408 1409 1409 1409 1409 1409 1409 1409 1408 1407 1406 1406 1406 1406 1406 1405 1404 1404 1404
1406 1404 1403 1402 1401 1400 1400 1399 1398 1397 1396 1396 1396 1397 1397 1397 1397 1398 1398 1399 1400 1401 1403 1403 1404 1404 1405 1405 1405 1405 1405 1404 1404 1403 1402 1402 1401 1401 1401 1401 1401 1400 1400
1404 1403 1401 1400 1399 1398 1398 1397 1397 1396 1395 1395 1394 1394 1394 1394 1395 1396 1396 1397 1397 1398 1399 1399 1400 1400 1400 1400 1401 1401 1401 1400 1399 1399 1398 1397 1397 1398 1398 1398 1398 1397 1396
1403 1401 1400 1399 1398 1397 1397 1396 1395 1395 1394 1393 1393 1392 1392 1392 1393 1393 1394 1394 1394 1395 1395 1395 1395 1395 1396 1396 1396 1396 1396 1396 1396 1396 1394 1393 1394 1394 1394 1394 1394 1394 1393
1401 1400 1399 1398 1397 1396 1396 1395 1394 1393 1392 1392 1391 1391 1390 1390 1391 1391 1391 1391 1391 1392 1392 1392 1392 1392 1392 1392 1392 1391 1391 1391 1391 1391 1390 1390 1390 1391 1391 1391 1391 1391 1391
1400 1399 1398 1397 1396 1395 1394 1394 1393 1392 1391 1390 1389 1389 1388 1388 1388 1388 1389 1388 1388 1388 1389 1389 1389 1389 1389 1389 1389 1388 1387 1387 1387 1387 1387 1387 1387 1387 1388 1388 1388 1388 1387
1400 1399 1398 1396 1395 1394 1393 1393 1392 1391 1389 1388 1387 1387 1386 1386 1386 1386 1386 1386 1385 1385 1385 1385 1386 1385 1385 1385 1385 1384 1384 1383 1383 1383 1383 1383 1383 1383 1384 1385 1385 1385 1385
1400 1399 1397 1396 1395 1393 1392 1391 1390 1389 1388 1387 1386 1385 1385 1384 1384 1383 1383 1383 1383 1382 1382 1382 1382 1382 1382 1382 1382 1381 1380 1380 1380 1380 1380 1380 1380 1380 1381 1381 1382 1382 1382
1399 1398 1396 1395 1394 1393 1391 1390 1389 1388 1386 1385 1384 1383 1382 1382 1381 1381 1381 1381 1380 1380 1379 1378 1378 1378 1378 1378 1378 1377 1377 1377 1377 1377 1377 1377 1377 1377 1378 1378 1378 1379 1380
1398 1397 1396 1395 1393 1392 1391 1389 1387 1386 1384 1383 1382 1380 1380 1379 1379 1379 1378 1377 1377 1377 1376 1376 1375 1374 1374 1374 1374 1374 1374 1374 1374 1373 1374 1374 1375 1375 1375 1375 1376 1376 1377
1397 1396 1395 1393 1392 1391 1389 1388 1386 1384 1383 1381 1380 1379 1378 1377 1376 1376 1375 1374 1374 1373 1373 1372 1371 1371 1370 1370 1370 1370 1370 1371 1371 1371 1371 1372 1372 1373 1373 1374 1374 1374 1374
1396 1395 1393 1392 1390 1389 1387 1386 1385 1383 1382 1381 1379 1378 1376 1374 1374 1374 1373 1372 1371 1371 1370 1368 1367 1367 1367 1367 1367 1367 1368 1368 1368 1369 1369 1369 1370 1371 1371 1372 1372 1372 1372
1395 1393 1392 1390 1389 1387 1385 1384 1383 1382 1380 1379 1377 1376 1374 1373 1372 1371 1370 1369 1368 1368 1367 1365 1364 1364 1364 1364 1364 1365 1365 1365 1366 1367 1367 1368 1368 1369 1369 1370 1371 1371 1371
1393 1392 1390 1389 1387 1386 1384 1382 1379 1378 1377 1376 1374 1373 1371 1370 1369 1368 1367 1366 1365 1365 1363 1362 1361 1361 1361 1361 1362 1363 1363 1364 1364 1365 1366 1366 1367 1368 1368 1369 1369 1369 1370
1392 1390 1389 1387 1385 1383 1382 1380 1378 1375 1373 1371 1370 1369 1368 1367 1366 1365 1364 1363 1362 1361 1360 1360 1359 1359 1359 1359 1360 1361 1361 1362 1363 1364 1364 1365 1366 1366 1367 1367 1368 1368 1369
1389 1387 1386 1384 1383 1381 1379 1377 1375 1373 1371 1369 1367 1366 1365 1364 1363 1362 1362 1360 1359 1358 1358 1357 1357 1357 1357 1358 1358 1359 1360 1361 1362 1362 1363 1364 1365 1365 1366 1367 1367 1367 1368
1386 1385 1383 1381 1380 1378 1376 1375 1373 1371 1369 1367 1365 1363 1362 1361 1359 1359 1358 1357 1357 1356 1355 1355 1355 1355 1355 1356 1356 1357 1358 1359 1360 1361 1362 1362 1363 1364 1365 1365 1366 1366 1367
1383 1381 1380 1378 1377 1375 1373 1372 1370 1368 1367 1365 1363 1362 1361 1359 1357 1356 1356 1355 1354 1354 1353 1353 1352 1352 1353 1353 1354 1355 1356 1357 1358 1359 1360 1361 1362 1363 1363 1364 1365 1365 1366
1380 1378 1377 1375 1374 1372 1371 1369 1368 1366 1364 1362 1360 1359 1358 1357 1355 1354 1353 1352 1352 1351 1351 1351 1350 1350 1351 1352 1352 1353 1354 1355 1356 1357 1358 1359 1360 1361 1362 1363 1364 1365 1366
1377 1375 1374 1372 1371 1369 1368 1366 1365 1363 1361 1360 1358 1356 1355 1353 1352 1351 1350 1349 1349 1348 1348 1348 1348 1348 1349 1350 1350 1351 1352 1353 1354 1355 1356 1357 1359 1360 1361 1362 1363 1364 1365
1373 1372 1370 1369 1368 1366 1365 1363 1362 1360 1359 1357 1355 1354 1352 1351 1349 1348 1347 1346 1346 1345 1345 1345 1345 1346 1347 1347 1348 1349 1350 1351 1352 1354 1355 1356 1357 1358 1360 1361 1362 1363 1365
1370 1369 1367 1366 1365 1363 1362 1360 1359 1357 1356 1354 1353 1351 1350 1348 1347 1345 1345 1344 1343 1343 1342 1343 1343 1343 1344 1345 1345 1346 1347 1349 1350 1352 1353 1354 1356 1357 1358 1360 1361 1363 1364
1367 1366 1364 1363 1362 1360 1359 1357 1356 1354 1353 1351 1350 1348 1347 1346 1344 1343 1342 1341 1341 1340 1340 1340 1341 1341 1342 1342 1343 1344 1346 1347 1348 1350 1352 1353 1354 1355 1357 1359 1360 1362 1364